Powrót do katalogu

CZ-6A DEB

AktywnySSO
NORAD 66790·DEBRIS·🇨🇳 China

Wystrzelony Nov 11, 2022 z Taiyuan Satellite Launch Center

Loading…

Następne Przeloty (najbliższe 24 godziny)

TLE

ŚwieżeSource: Space-Track

Epoka: Sep 12, 2026, 00:07 UTC

1 66790U 22151AJG 26255.00521859  .00001262  00000-0  63652-3 0  9995
2 66790  98.8210 260.4869 0042428  43.7237 316.7286 14.17631039179330

Śledź CZ-6A DEB w czasie rzeczywistym z AllMySat

Download on the App Store